sat.trackr.live / text

‹ back to catalog

STARLINK-36760

NORAD 68956 · 2026-099F

PAYLOAD ACTIVE UNKNOWN

§ Identity

Operator
Country
US
Launch date
2026-05-01
Launch site
AFETR
Launch vehicle
Mass (kg)
RCS (m²)

Purposes: comms

External: N2YO · Heavens-Above · Gunter

§ Orbital elements

Epoch: 2026-09-20T01:16:09.138720Z

Period
93.85 min
Inclination
53.1565°
Eccentricity
0.0001045
Mean motion
15.34411969 rev/d
Perigee alt
462.0 km
Apogee alt
463.4 km
Semi-major
6,840.8 km
B*
4.8304e-4
RAAN
78.0276°
Arg perigee
74.2367°
Mean anomaly
285.8751°
Rev number
2,183

§ Raw data

STARLINK-367601 68956U 26099F   26263.05288355  .00015985  00000+0  48304-3 0  99942 68956  53.1565  78.0276 0001045  74.2367 285.8751 15.34411969 21833

JSON: /api/v1/satellites/68956 · /tle

For live sub-satellite position, see the globe view (requires WebGL).

§ Visibility from observer

Set your observer location to see the next 7 days of passes ≥ 10°. The values pass through the URL so the page stays shareable.

No JS? Fill the form by hand. The geolocation button needs JavaScript.